Regional Weather Roundup
Issued by NWS

Home | Current Version | Previous Version | Text Only | Print | Product List | Glossary Off
Versions: 1 2 3 4 5 6 7 8 9 10 11 12 13 14 15 16 17 18 19 20 21 22 23 24 25 26 27 28 29 30 31 32 33 34 35 36 37 38 39 40 41 42 43 44 45 46 47 48 49 50

000
ASUS44 KMEG 241010
RWRTN
TENNESSEE HOURLY STATE WEATHER ROUNDUP
NATIONAL WEATHER SERVICE MEMPHIS TN
500 AM CDT FRI OCT 24 2014

TNZ002-004-019-021-049-052-054-088>092-241100-
WEST TENNESSEE

CITY           SKY/WX    TMP DP  RH WIND       PRES   REMARKS
MEMPHIS INTL   CLEAR     49  46  90 CALM      30.13S
NWS MEMPHIS      N/A     45 N/A N/A MISG        N/A
JACKSON        CLEAR     42  40  92 CALM      30.13S
DYERSBURG      CLEAR     43  32  65 CALM      30.15R
UNION CITY     CLEAR     39  39 100 CALM      30.12S
PARIS            N/A     37  37 100 CALM      30.12S VSB 3/4
HUNTINGDON     CLEAR     39  38  97 CALM      30.12F
LEXINGTON      CLEAR     41  41 100 CALM      30.11S
SAVANNAH       CLEAR     45  45 100 CALM      30.13R
$$

TNZ008-025-027-028-033-062-065-066-241100-
NORTH MIDDLE TENNESSEE

CITY           SKY/WX    TMP DP  RH WIND       PRES   REMARKS
NASHVILLE      MOCLDY    50  45  83 NW5       30.12R
CLARKSVILLE    CLEAR     45  43  93 CALM      30.12S
SMYRNA         CLOUDY    48  45  90 CALM      30.13R
COOKEVILLE     CLEAR     45  45 100 CALM      30.10S
CROSSVILLE     CLOUDY    45  41  86 CALM      30.11S
$$

TNZ061-075-076-078-094-096-097-241100-
SOUTH MIDDLE TENNESSEE

CITY           SKY/WX    TMP DP  RH WIND       PRES   REMARKS
FAYETTEVILLE   CLEAR     46  43  87 CALM      30.10R
TULLAHOMA      CLEAR     46  45  93 E3        30.10S
WINCHESTER     CLEAR     45  45 100 NW6       30.09S
MCMINNVILLE    CLEAR     45  45 100 CALM      30.10R
COLUMBIA         N/A    N/A N/A N/A CALM      30.10R
SHELBYVILLE    CLEAR     45  45 100 CALM      30.11S
$$

TNZ017-018-042-046-047-241100-
NORTHEAST TENNESSEE

CITY           SKY/WX    TMP DP  RH WIND       PRES   REMARKS
TRI CITIES     CLOUDY    40  38  93 CALM      30.12R FOG
ELIZABETHTON   SUNNY     36  36 100 CALM      30.11S
$$

TNZ012-013-036-069-073-074-241100-
CENTRAL EAST TENNESSEE

CITY           SKY/WX    TMP DP  RH WIND       PRES   REMARKS
KNOXVILLE      MOCLDY    45  42  89 NE7       30.09S
OAK RIDGE      CLOUDY    47  44  90 CALM      30.13R
GATLINBURG     SUNNY     39  39 100 NE3       30.11S
MORRISTOWN     SUNNY     45  41  87 E5        30.11S
$$

TNZ083-085-099-241100-
SOUTHEAST TENNESSEE

CITY           SKY/WX    TMP DP  RH WIND       PRES   REMARKS
CHATTANOOGA    CLOUDY    50  47  89 CALM      30.10R
$$

SKY/WX REPORTED AS FAIR MEANS FEW OR NO CLOUDS BELOW
12 THOUSAND FEET.




USA.gov is the U.S. government's official web portal to all federal, state and local government web resources and services.